Location: *
(43.7000°S, 168.7000°W)
Time: 03:01:33
(UTC+00:00)

Cosmos 1340 Rocket - Visible Passes

Search period start: 23 October 2020 00:00
Search period end: 02 November 2020 00:00
Orbit: 529 x 558 km, 81.2° (Epoch: 22 October)

Date Brightness Start Highest point End Pass type
(mag) Time Alt. Az. Time Alt. Az. Time Alt. Az.
23 Oct 2.8 15:20:07 10° NNW 15:24:03 69° W 15:28:03 10° S visible
24 Oct 2.8 15:13:52 10° NNW 15:17:48 65° WSW 15:21:46 10° S visible
25 Oct 6.0 13:35:17 10° E 13:35:41 10° E 13:36:04 10° E visible
25 Oct 2.8 15:07:36 10° NNW 15:11:31 61° WSW 15:15:29 10° S visible
26 Oct 5.8 13:28:23 10° E 13:29:22 11° E 13:30:22 10° ESE visible
26 Oct 2.9 15:01:24 10° NNW 15:05:15 57° WSW 15:09:12 10° S visible
27 Oct 5.7 13:21:45 10° ENE 13:23:05 11° E 13:24:24 10° ESE visible
27 Oct 3.0 14:55:37 13° NNW 14:58:59 54° WSW 15:02:54 10° S visible
28 Oct 5.6 13:15:11 10° ENE 13:16:47 12° E 13:18:22 10° ESE visible
28 Oct 3.0 14:49:47 16° NNW 14:52:42 50° WSW 14:56:37 10° S visible
29 Oct 5.6 13:08:39 10° ENE 13:10:28 13° E 13:12:17 10° ESE visible
29 Oct 3.1 14:43:55 19° NW 14:46:26 47° WSW 14:50:19 10° S visible
30 Oct 5.5 13:02:23 11° ENE 13:04:10 14° E 13:06:11 10° SE visible
30 Oct 3.2 14:38:00 22° NW 14:40:10 45° WSW 14:44:02 10° S visible
31 Oct 5.4 12:56:26 12° ENE 12:57:51 14° E 13:00:03 10° SE visible
31 Oct 3.3 14:32:02 25° NW 14:33:53 42° WSW 14:37:43 10° S visible
01 Nov 5.3 12:50:27 14° ENE 12:51:33 15° E 12:53:54 10° SE visible
01 Nov 3.4 14:26:02 27° NW 14:27:37 40° WSW 14:31:25 10° S visible
